FW6466 Weather Reports


Display with metric or nautical units.
time (UTC)temp
F
wind
direction
speed
MPH
gust
MPH
rain 1hr
in
rain 24hr
in
rain mn
in
humidity
%
barometer
mb
20260505053016 57 169 1.0 4.0 0.00 0.00 0.00 53 1006.7
20260505052408 57 180 1.0 4.0 0.00 0.00 0.00 53 1006.7
20260505051517 57 160 1.0 5.0 0.00 0.00 0.00 53 1006.7
20260505050808 57 180 1.0 1.0 0.00 0.00 0.00 52 1006.6
20260505041017 57 200 1.0 3.0 0.00 0.00 0.00 50 1006.4
20260505040016 57 183 1.0 2.0 0.00 0.00 0.00 49 1006.3
20260505035016 57 134 1.0 2.0 0.00 0.00 0.00 50 1006.2
20260505034416 58 0.0 0.0 0.00 0.00 0.00 48 1006.2
20260505033536 58 180 0.0 1.0 0.00 0.00 0.00 48 1006.2
20260505032821 58 180 1.0 1.0 0.00 0.00 0.00 49 1006.2
20260505031516 58 255 1.0 2.0 0.00 0.00 0.00 49 1006.2
20260505030829 58 180 1.0 1.0 0.00 0.00 0.00 48 1006.2
20260505025821 58 180 1.0 2.0 0.00 0.00 0.00 48 1006.3
20260505024826 59 45 1.0 1.0 0.00 0.00 0.00 47 1006.3
20260505024017 58 45 1.0 2.0 0.00 0.00 0.00 46 1006.2
20260505023323 59 0.0 1.0 0.00 0.00 0.00 46 1006.4
20260505022037 59 180 0.0 2.0 0.00 0.00 0.00 46 1006.4
20260505021323 59 180 1.0 1.0 0.00 0.00 0.00 47 1006.5
20260505020311 60 180 1.0 2.0 0.00 0.00 0.00 45 1006.4
20260505015516 60 172 1.0 2.0 0.00 0.00 0.00 45 1006.4
20260505014908 60 270 1.0 1.0 0.00 0.00 0.00 44 1006.4
20260505014016 61 270 1.0 1.0 0.00 0.00 0.00 44 1006.3
20260505013017 61 270 0.0 2.0 0.00 0.00 0.00 44 1006.2
20260505012206 62 270 1.0 2.0 0.00 0.00 0.00 44 1006.1
20260505011319 62 225 1.0 1.0 0.00 0.00 0.00 43 1006.0
20260505010516 62 206 1.0 2.0 0.00 0.00 0.00 43 1006.0
20260505005656 63 180 1.0 2.0 0.00 0.00 0.00 42 1006.0
20260505005015 63 180 1.0 2.0 0.00 0.00 0.00 41 1006.0
20260505004309 64 180 1.0 2.0 0.00 0.00 0.00 41 1005.9
20260505003016 65 180 1.0 2.0 0.00 0.00 0.00 39 1005.9
20260505002044 66 180 1.0 2.0 0.00 0.00 0.00 38 1005.9
20260505001515 66 180 1.0 2.0 0.00 0.00 0.00 38 1005.8
20260505000820 68 225 1.0 1.0 0.00 0.00 0.00 37 1005.8
20260504235516 69 200 1.0 2.0 0.00 0.00 0.00 36 1005.6
20260504234840 71 180 1.0 1.0 0.00 0.00 0.00 35 1005.5
20260504234016 71 181 1.0 2.0 0.00 0.00 0.00 34 1005.3
20260504233016 73 180 1.0 1.0 0.00 0.00 0.00 33 1005.3
20260504232321 74 135 1.0 4.0 0.00 0.00 0.00 31 1005.3
20260504231517 74 320 1.0 5.0 0.00 0.00 0.00 32 1005.2
20260504230901 74 225 2.0 3.0 0.00 0.00 0.00 31 1005.1
20260504225917 73 180 2.0 7.0 0.00 0.00 0.00 31 1005.0
20260504224905 73 225 2.0 3.0 0.00 0.00 0.00 32 1004.9
20260504223517 73 307 2.0 5.0 0.00 0.00 0.00 32 1004.9
20260504222820 74 315 2.0 5.0 0.00 0.00 0.00 31 1004.9
20260504222037 74 323 3.0 10.0 0.00 0.00 0.00 31 1004.9
20260504221309 74 270 2.0 5.0 0.00 0.00 0.00 32 1004.9
20260504220536 74 15 1.0 8.0 0.00 0.00 0.00 33 1005.0
20260504215557 74 225 2.0 3.0 0.00 0.00 0.00 32 1005.0
20260504214546 75 0 3.0 3.0 0.00 0.00 0.00 31 1005.1
20260504213907 75 270 2.0 5.0 0.00 0.00 0.00 31 1005.1
20260504213015 75 286 2.0 6.0 0.00 0.00 0.00 31 1005.1
20260504212408 75 225 1.0 1.0 0.00 0.00 0.00 32 1005.2
20260504211036 75 299 1.0 5.0 0.00 0.00 0.00 32 1005.3
20260504210055 75 280 2.0 7.0 0.00 0.00 0.00 30 1005.3
20260504205320 77 135 4.0 6.0 0.00 0.00 0.00 29 1005.3
20260504204017 78 327 4.0 9.0 0.00 0.00 0.00 29 1005.4
20260504203036 78 263 5.0 15.0 0.00 0.00 0.00 28 1005.5
20260504202017 79 337 5.0 10.0 0.00 0.00 0.00 28 1005.6
20260504201408 80 135 2.0 3.0 0.00 0.00 0.00 30 1005.9
20260504200516 79 352 3.0 7.0 0.00 0.00 0.00 29 1005.8
20260504195556 79 90 4.0 5.0 0.00 0.00 0.00 30 1006.0
20260504194808 78 315 4.0 9.0 0.00 0.00 0.00 28 1006.1
20260504193516 77 345 4.0 10.0 0.00 0.00 0.00 30 1006.2
20260504192807 76 0 6.0 7.0 0.00 0.00 0.00 31 1006.2
20260504191918 75 315 5.0 13.0 0.00 0.00 0.00 30 1006.3
20260504190927 75 338 5.0 8.0 0.00 0.00 0.00 32 1006.3
20260504190017 74 326 6.0 14.0 0.00 0.00 0.00 32 1006.3
20260504185358 73 23 3.0 8.0 0.00 0.00 0.00 33 1006.4
20260504184311 72 270 3.0 5.0 0.00 0.00 0.00 33 1006.4
20260504183408 73 315 4.0 5.0 0.00 0.00 0.00 33 1006.5
20260504182322 73 315 4.0 9.0 0.00 0.00 0.00 32 1006.6
20260504181558 73 305 4.0 10.0 0.00 0.00 0.00 32 1006.6
20260504180914 74 315 4.0 5.0 0.00 0.00 0.00 32 1006.6
20260504175516 74 302 5.0 15.0 0.00 0.00 0.00 31 1006.7
20260504174518 74 332 6.0 16.0 0.00 0.00 0.00 31 1006.7
20260504173552 73 270 4.0 9.0 0.00 0.00 0.00 33 1006.8
20260504173037 72 318 5.0 22.0 0.00 0.00 0.00 33 1006.9
20260504172016 71 330 5.0 13.0 0.00 0.00 0.00 33 1007.0
20260504171316 71 45 3.0 3.0 0.00 0.00 0.00 34 1007.2
20260504170309 71 180 2.0 6.0 0.00 0.00 0.00 35 1007.3
20260504150516 66 333 4.0 10.0 0.00 0.00 0.00 36 1008.2
20260504140833 61 225 3.0 2.0 0.00 0.00 0.00 40 1008.4
20260504130350 59 0 3.0 3.0 0.00 0.00 0.00 42 1009.0
20260504110320 45 225 1.0 2.0 0.00 0.00 0.00 64 1008.9
20260504100517 43 200 1.0 4.0 0.00 0.00 0.00 63 1008.7
20260504081517 44 225 1.0 2.0 0.00 0.00 0.00 61 1008.9
20260504080517 44 180 0.0 1.0 0.00 0.00 0.00 61 1009.0